Weather in Telets

Russia / Bryansk Oblast     52°34′10″N   33°44′44″E
temp.,
°C
wind,
m/s
gust,
m/s
humid.,
%
clouds,
%
prec.,
mm/h
press.,
hPa
HPBL,
m
24 july, sat
sat2400:00+17w2478100 0.2 1012105
03:00+17nw237976 0.2 101356
06:00+15wnw249558 0.7 101385
09:00+19n2275100 0.8 1014449
12:00+23nne23520 0.0 10141070
15:00+25nnw334572 0.0 10142115
18:00+20ese1266100 0.0 101584
21:00+18ese116919 0.0 101612
25 july, sun
sun2500:00+16ese117653 0.0 101811
03:00+17ese227160 0.0 101953
06:00+15ese23766 0.0 102052
09:00+20se245773 0.0 1020451
12:00+24sse334822 0.0 10211253
15:00+24sse2247100 0.0 10201608
18:00+24ese235315 0.0 1020862
21:00+18ese237812 0.0 102154
26 july, mon
mon2600:00+17e258276 0.2 1023105
03:00+15se25855 0.3 102394
06:00+15se277754 0.0 1023152
09:00+21sse35579 0.1 1023468
12:00+25s454762 0.0 10231344
15:00+26s35448 0.0 10231439
18:00+26sse344913 0.0 10221566
21:00+19sse22752 0.0 102320
27 july, tue
tue2700:00+17sse22824 0.0 102426
03:00+16se22746 0.0 102443
06:00+16sse23735 0.0 102461
09:00+23sse24495 0.0 1023416
12:00+27sse22385 0.0 10231647
15:00+27sse3242100 0.0 10221537
18:00+26se2453100 0.0 1021464
21:00+22se266157 0.0 1021124
28 july, wed
wed2800:00+19se37668 0.0 1021100
03:00+17se36704 0.0 1020104
06:00+16sse27745 0.0 1019124
09:00+23sse484668 0.0 1018475
12:00+28s5835100 0.0 10161796
15:00+19w4986100 0.4 1016355
18:00+20sse31182100 0.3 1014434
21:00+19se41275100 0.4 1012320